Погода в Хатини

Вьетнам     18°20′27″N   105°54′03″E
темп.,
°C
ветер,
м/с
пор.,
м/с
влажн.,
%
обл.,
%
осадки,
мм/ч
давл.,
гПа
погр.,
м
14 мая, пт
пт1401:00+26ююв128762 0.0 100455
04:00+25ю118967 0.0 100434
07:00+28ю11775 0.0 1005200
10:00+35в13475 0.0 10051118
13:00+34всв435840 0.0 1003592
16:00+34вюв345326 0.0 1001937
19:00+29юв36715 0.0 1003178
22:00+27ю24825 0.0 1005100
15 мая, сб
сб1501:00+27ююв12822 0.0 100433
04:00+26ю11823 0.0 100414
07:00+29ю12705 0.0 1006163
10:00+36ююз13440 0.0 10051381
13:00+36ссв344658 0.0 10031718
16:00+34всв235716 0.0 1001576
19:00+31ююв24640 0.0 100371
22:00+27ююв24810 0.0 100471
16 мая, вс
вс1601:00+27ю22805 0.0 100346
04:00+27ю11775 0.0 100316
07:00+30ю23685 0.0 1005177
10:00+37юз13435 0.0 10051424
13:00+34св445759 0.0 1004546
16:00+34вюв355717 0.1 1002607
19:00+29юв25792 0.1 1004134
22:00+27ююв248461 0.0 1006110
17 мая, пн
пн1701:00+27ююв2288100 0.0 100468
04:00+26юз118999 0.0 100415
07:00+29ююв1174100 0.0 1006196
10:00+35ссв225232 0.0 10071106
13:00+34св545810 0.1 1004761
16:00+27ююз5991100 11.4 1004347
19:00+25ю2293100 14.3 100779
22:00+25юв1295100 0.4 100766
18 мая, вт
вт1801:00+25ююз1194100 0.4 100725
04:00+24з119598 0.0 100739
07:00+26зюз119091 0.0 1008189
10:00+32в126655 0.0 1008907
13:00+34св43609 0.1 10051145
16:00+31всв337145 1.5 1004613
19:00+27вюв22895 1.6 100561
22:00+26ююв2393100 0.1 1006103